Location: Jackson Park
(37.2862°N, 79.9123°W)
Time: 14:34:15
(UTC+00:00)

S-56A Canister/Altair - Pass Details

Date: 11 May 2026
Orbit: 633 x 2484 km, 38.9° (Epoch: 6 June)

Event Time Altitude Azimuth Distance (km) Brightness Sun altitude
Rises 04:41:17 0° 268° (W) 2,952 - -34.2°
Reaches altitude 10° 04:43:23 10° 270° (W) 2,107 - -34.3°
Maximum altitude 04:48:07 76° 357° (N) 816 - -34.4°
Drops below altitude 10° 04:54:33 10° 83° (E) 2,834 - -34.6°
Exits shadow 04:55:24 - 84° (E) 3,158 10.7 -34.6°
Sets 04:57:48 0° 85° (E) 4,071 11.2 -34.7°
